LA1KNX Weather Reports


time (UTC)temp
C
wind
direction
speed
KPH
gust
KPH
rain 1hr
cm
rain 24hr
cm
rain mn
cm
humidity
%
barometer
mb
20260507233003 3 351 4.8 0.0 0.00 0.00 0.00 61 1018.2
20260507230003 3 351 4.8 0.0 0.00 0.00 0.00 61 1018.2
20260507224503 4 351 4.8 0.0 0.00 0.00 0.00 61 1018.2
20260507223003 4 247 8.0 0.0 0.00 0.00 0.00 61 1018.2
20260507221502 4 247 8.0 0.0 0.00 0.00 0.00 61 1018.2
20260507220005 4 247 8.0 0.0 0.00 0.00 0.00 61 1018.2
20260507214502 5 241 8.0 0.0 0.00 0.00 0.00 61 1018.2
20260507213003 5 241 8.0 0.0 0.00 0.00 0.00 61 1018.2
20260507211501 5 241 8.0 0.0 0.00 0.00 0.00 61 1018.2
20260507210002 6 241 8.0 0.0 0.00 0.00 0.00 61 1018.2
20260507204502 6 241 8.0 0.0 0.00 0.00 0.00 61 1018.2
20260507203003 7 222 8.0 0.0 0.00 0.00 0.00 61 1018.2
20260507201503 7 222 8.0 0.0 0.00 0.00 0.00 61 1018.2
20260507200003 7 222 8.0 0.0 0.00 0.00 0.00 61 1018.2
20260507193003 8 204 9.7 0.0 0.00 0.00 0.00 61 1018.2
20260507191501 8 204 9.7 0.0 0.00 0.00 0.00 61 1018.2
20260507190003 8 204 9.7 0.0 0.00 0.00 0.00 61 1018.2
20260507184503 9 204 9.7 0.0 0.00 0.00 0.00 61 1018.2
20260507183005 9 154 8.0 0.0 0.00 0.00 0.00 61 1018.2
20260507181502 10 154 8.0 0.0 0.00 0.00 0.00 61 1018.2
20260507180005 10 130 8.0 0.0 0.00 0.00 0.00 61 1018.2
20260507174502 10 130 8.0 0.0 0.00 0.00 0.00 61 1018.2
20260507173002 10 130 8.0 0.0 0.00 0.00 0.00 61 1018.2
20260507171501 10 130 8.0 0.0 0.00 0.00 0.00 61 1018.2
20260507170005 10 130 8.0 0.0 0.00 0.00 0.00 61 1018.2
20260507164501 10 125 8.0 0.0 0.00 0.00 0.00 61 1018.2
20260507163002 10 125 8.0 0.0 0.00 0.00 0.00 61 1018.2
20260507161502 10 125 8.0 0.0 0.00 0.00 0.00 61 1018.2
20260507160002 10 119 9.7 0.0 0.00 0.00 0.00 61 1018.2
20260507154502 10 119 9.7 0.0 0.00 0.00 0.00 61 1018.2
20260507153002 10 119 9.7 0.0 0.00 0.00 0.00 61 1018.2
20260507151502 10 119 9.7 0.0 0.00 0.00 0.00 61 1018.2
20260507150002 10 119 9.7 0.0 0.00 0.00 0.00 61 1018.2
20260507144502 10 116 9.7 0.0 0.00 0.00 0.00 61 1018.2
20260507143003 10 116 9.7 0.0 0.00 0.00 0.00 61 1018.2
20260507141502 10 116 9.7 0.0 0.00 0.00 0.00 61 1018.2
20260507140002 10 114 8.0 0.0 0.00 0.00 0.00 61 1018.2
20260507134502 10 114 8.0 0.0 0.00 0.00 0.00 61 1018.2
20260507133001 10 114 8.0 0.0 0.00 0.00 0.00 61 1018.2
20260507131506 10 114 8.0 0.0 0.00 0.00 0.00 61 1018.2
20260507130002 10 114 8.0 0.0 0.00 0.00 0.00 61 1018.2
20260507124502 10 109 4.8 0.0 0.00 0.00 0.00 61 1018.2
20260507123004 11 109 4.8 0.0 0.00 0.00 0.00 61 1018.2
20260507121502 11 81 4.8 0.0 0.00 0.00 0.00 61 1018.2
20260507120005 10 81 4.8 0.0 0.00 0.00 0.00 61 1018.2
20260507114502 11 81 4.8 0.0 0.00 0.00 0.00 61 1018.2
20260507113002 10 81 4.8 0.0 0.00 0.00 0.00 61 1018.2
20260507111503 10 81 4.8 0.0 0.00 0.00 0.00 61 1018.2
20260507110003 10 359 4.8 0.0 0.00 0.00 0.00 61 1018.2
20260507103002 11 359 4.8 0.0 0.00 0.00 0.00 61 1018.2
20260507101501 12 2 6.4 0.0 0.00 0.00 0.00 61 1018.2
20260507100004 12 2 6.4 0.0 0.00 0.00 0.00 61 1018.2
20260507094503 13 2 6.4 0.0 0.00 0.00 0.00 61 1018.2
20260507093002 14 2 6.4 0.0 0.00 0.00 0.00 61 1018.2
20260507091501 15 2 6.4 0.0 0.00 0.00 0.00 61 1018.2
20260507090006 16 2 6.4 0.0 0.00 0.00 0.00 61 1018.2
20260507084502 15 2 6.4 0.0 0.00 0.00 0.00 61 1018.2
20260507083004 16 2 6.4 0.0 0.00 0.00 0.00 61 1018.2
20260507081501 16 4 6.4 0.0 0.00 0.00 0.00 61 1018.2
20260507080004 16 4 6.4 0.0 0.00 0.00 0.00 61 1018.2
20260507074502 15 4 6.4 0.0 0.00 0.00 0.00 61 1018.2
20260507073004 13 4 6.4 0.0 0.00 0.00 0.00 61 1018.2
20260507071504 12 4 6.4 0.0 0.00 0.00 0.00 61 1018.2
20260507070003 10 4 6.4 0.0 0.00 0.00 0.00 61 1018.2
20260507064501 6 4 6.4 0.0 0.00 0.00 0.00 61 1018.2
20260507063002 3 26 1.6 0.0 0.00 0.00 0.00 61 1018.2
20260507061502 3 26 1.6 0.0 0.00 0.00 0.00 61 1018.2
20260507060002 2 26 1.6 0.0 0.00 0.00 0.00 61 1018.2
20260507054504 2 202 3.2 0.0 0.00 0.00 0.00 61 1018.2
20260507053003 1 202 3.2 0.0 0.00 0.00 0.00 61 1018.2
20260507051503 1 202 3.2 0.0 0.00 0.00 0.00 61 1018.2
20260507050005 1 202 3.2 0.0 0.00 0.00 0.00 61 1018.2
20260507044503 0 202 3.2 0.0 0.00 0.00 0.00 61 1018.2
20260507043002 0 42 3.2 0.0 0.00 0.00 0.00 61 1018.2
20260507041505 0 42 3.2 0.0 0.00 0.00 0.00 61 1018.2
20260507040003 0 336 6.4 0.0 0.00 0.00 0.00 61 1018.2
20260507034501 0 336 6.4 0.0 0.00 0.00 0.00 61 1018.2
20260507033002 0 336 6.4 0.0 0.00 0.00 0.00 61 1018.2
20260507031503 0 336 6.4 0.0 0.00 0.00 0.00 61 1018.2
20260507030003 0 336 6.4 0.0 0.00 0.00 0.00 61 1018.2
20260507024501 0 336 6.4 0.0 0.00 0.00 0.00 61 1018.2
20260507023005 1 312 12.9 0.0 0.00 0.00 0.00 61 1018.2
20260507021501 1 312 12.9 0.0 0.00 0.00 0.00 61 1018.2
20260507020003 1 309 12.9 0.0 0.00 0.00 0.00 61 1018.2
20260507014502 1 309 12.9 0.0 0.00 0.00 0.00 61 1018.2
20260507013003 1 309 12.9 0.0 0.00 0.00 0.00 61 1018.2
20260507010005 1 309 12.9 0.0 0.00 0.00 0.00 61 1018.2
20260507004502 2 308 12.9 0.0 0.00 0.00 0.00 61 1018.2
20260507003003 2 308 12.9 0.0 0.00 0.00 0.00 61 1018.2
20260507001501 2 308 12.9 0.0 0.00 0.00 0.00 61 1018.2
20260507000003 2 309 14.5 0.0 0.00 0.00 0.00 61 1018.2
20260506234502 3 309 14.5 0.0 0.00 0.00 0.00 61 1018.2